JIA1432 MMQT-KDFW

Flight info

Callsign JIA1432
Flight time N/A
Altitude 33000
Route ROGDI1 ROGDI UJ14 AVSUB UJ81 MORAS UJ17 REX/N0449F340 DCT ICEMN DCT SPURS/N0448F350 DCT GUTZZ SHMPP3
Aircraft CRJ9/M-SDFGIRWY/S

Departure

Time 2026-04-29 16:17
Airport Querétaro Intercontinental Airport (MMQT)

Arrival

Time N/A
Airport Dallas Fort Worth International Airport (KDFW)
Time Latitude Longitude Altitude Speed Heading
2026-04-29 16:06 20.62130 -100.18419 6286 ft 0 kts 11°
2026-04-29 16:11 20.62138 -100.18439 6286 ft 6 kts 243°
2026-04-29 16:11 20.62108 -100.18473 6285 ft 7 kts 199°
2026-04-29 16:11 20.62061 -100.18531 6285 ft 16 kts 279°
2026-04-29 16:12 20.62088 -100.18681 6284 ft 22 kts 282°
2026-04-29 16:12 20.62108 -100.18793 6282 ft 22 kts 282°
2026-04-29 16:12 20.62147 -100.18997 6281 ft 19 kts 283°
2026-04-29 16:12 20.62175 -100.19138 6280 ft 18 kts 277°
2026-04-29 16:13 20.62188 -100.19268 6279 ft 16 kts 242°
2026-04-29 16:13 20.62092 -100.19308 6279 ft 13 kts 197°
2026-04-29 16:13 20.62066 -100.19374 6279 ft 4 kts 291°
2026-04-29 16:13 20.62069 -100.19401 6278 ft 3 kts 275°
2026-04-29 16:14 20.62070 -100.19425 6278 ft 3 kts 269°
2026-04-29 16:14 20.62079 -100.19511 6277 ft 19 kts 282°
2026-04-29 16:14 20.62108 -100.19679 6276 ft 26 kts 277°
2026-04-29 16:14 20.62148 -100.19900 6274 ft 33 kts 284°
2026-04-29 16:15 20.62186 -100.20095 6273 ft 11 kts 280°
2026-04-29 16:15 20.62147 -100.20175 6273 ft 14 kts 189°
2026-04-29 16:15 20.62058 -100.20197 6273 ft 7 kts 203°
2026-04-29 16:15 20.62039 -100.20187 6273 ft 0 kts 109°
2026-04-29 16:16 20.62038 -100.20185 6273 ft 0 kts 101°
2026-04-29 16:16 20.61996 -100.19968 6274 ft 61 kts 102°
2026-04-29 16:16 20.61876 -100.19315 6279 ft 115 kts 101°
2026-04-29 16:17 20.61686 -100.18293 6290 ft 160 kts 101°
2026-04-29 16:17 20.61447 -100.17030 6437 ft 177 kts 101°
2026-04-29 16:17 20.61189 -100.15710 6791 ft 183 kts 102°
2026-04-29 16:17 20.60889 -100.14323 7149 ft 191 kts 103°
2026-04-29 16:18 20.60551 -100.12897 7510 ft 198 kts 104°
2026-04-29 16:18 20.60407 -100.11403 7686 ft 213 kts 75°
2026-04-29 16:18 20.61311 -100.10066 7770 ft 228 kts 35°
2026-04-29 16:18 20.62649 -100.09126 8253 ft 227 kts 34°
2026-04-29 16:19 20.64020 -100.08186 8743 ft 235 kts 33°
2026-04-29 16:19 20.65405 -100.07269 9472 ft 233 kts 33°
2026-04-29 16:19 20.66824 -100.06337 10132 ft 234 kts 33°
2026-04-29 16:19 20.68279 -100.05387 10340 ft 257 kts 33°
2026-04-29 16:20 20.69918 -100.04318 10441 ft 282 kts 32°
2026-04-29 16:20 20.71651 -100.03193 10864 ft 292 kts 32°
2026-04-29 16:20 20.73417 -100.02045 11466 ft 295 kts 32°
2026-04-29 16:20 20.75216 -100.00875 11725 ft 311 kts 32°
2026-04-29 16:21 20.77165 -99.99608 11974 ft 325 kts 32°
2026-04-29 16:21 20.79129 -99.98330 12515 ft 328 kts 32°
2026-04-29 16:21 20.81102 -99.97047 13099 ft 328 kts 32°
2026-04-29 16:21 20.83063 -99.95771 13647 ft 330 kts 32°
2026-04-29 16:22 20.85043 -99.94483 14132 ft 333 kts 32°
2026-04-29 16:22 20.87093 -99.93147 14622 ft 336 kts 32°
2026-04-29 16:22 20.89110 -99.91832 15085 ft 339 kts 32°
2026-04-29 16:22 20.91168 -99.90492 15588 ft 341 kts 32°
2026-04-29 16:23 20.93154 -99.89079 16027 ft 344 kts 40°
2026-04-29 16:23 20.94968 -99.87315 16446 ft 347 kts 42°
2026-04-29 16:23 20.96796 -99.85545 16880 ft 350 kts 42°
2026-04-29 16:23 20.98642 -99.83759 17346 ft 352 kts 42°
2026-04-29 16:24 21.00481 -99.81979 17711 ft 356 kts 42°
2026-04-29 16:24 21.02337 -99.80183 18161 ft 358 kts 42°
2026-04-29 16:24 21.04231 -99.78349 18542 ft 362 kts 42°
2026-04-29 16:24 21.06115 -99.76522 18963 ft 365 kts 42°
2026-04-29 16:25 21.08030 -99.74666 19401 ft 367 kts 42°
2026-04-29 16:25 21.09955 -99.72799 19752 ft 372 kts 42°
2026-04-29 16:25 21.11907 -99.70905 20182 ft 374 kts 41°
2026-04-29 16:25 21.13903 -99.68967 20547 ft 378 kts 41°
2026-04-29 16:26 21.15879 -99.67051 20965 ft 380 kts 41°
2026-04-29 16:26 21.17897 -99.65092 21356 ft 384 kts 41°
2026-04-29 16:26 21.19900 -99.63146 21738 ft 386 kts 41°
2026-04-29 16:26 21.21918 -99.61184 22160 ft 388 kts 41°
2026-04-29 16:27 21.23985 -99.59172 22538 ft 392 kts 41°
2026-04-29 16:27 21.26042 -99.57173 22929 ft 394 kts 41°
2026-04-29 16:27 21.28104 -99.55168 23269 ft 398 kts 41°
2026-04-29 16:27 21.30211 -99.53114 23702 ft 400 kts 41°
2026-04-29 16:28 21.32309 -99.51070 24075 ft 403 kts 41°
2026-04-29 16:28 21.34408 -99.49024 24427 ft 406 kts 41°
2026-04-29 16:28 21.36538 -99.46950 24782 ft 408 kts 40°
2026-04-29 16:28 21.38668 -99.44870 25193 ft 410 kts 40°
2026-04-29 16:29 21.40942 -99.42928 25502 ft 410 kts 27°
2026-04-29 16:29 21.43699 -99.41998 25784 ft 409 kts
2026-04-29 16:29 21.46588 -99.42248 26137 ft 409 kts 347°
2026-04-29 16:29 21.49410 -99.42903 26507 ft 411 kts 347°
2026-04-29 16:30 21.52246 -99.43557 26835 ft 414 kts 347°
2026-04-29 16:30 21.55115 -99.44218 27230 ft 414 kts 347°
2026-04-29 16:30 21.58004 -99.44886 27603 ft 416 kts 347°
2026-04-29 16:30 21.60859 -99.45545 27893 ft 419 kts 347°
2026-04-29 16:31 21.63779 -99.46220 28218 ft 422 kts 347°
2026-04-29 16:31 21.66701 -99.46896 28659 ft 421 kts 347°
2026-04-29 16:31 21.69611 -99.47568 29126 ft 420 kts 347°
2026-04-29 16:31 21.72503 -99.48236 29613 ft 418 kts 347°
2026-04-29 16:32 21.75371 -99.48900 30144 ft 415 kts 347°
2026-04-29 16:32 21.77294 -99.49345 30419 ft 415 kts 347°
2026-04-29 16:32 21.81099 -99.50226 31066 ft 412 kts 347°
2026-04-29 16:32 21.83903 -99.50875 31599 ft 408 kts 347°
2026-04-29 16:33 21.89529 -99.52178 32406 ft 407 kts 347°
2026-04-29 16:33 21.92371 -99.52838 32838 ft 406 kts 347°
2026-04-29 16:33 21.95181 -99.53490 33159 ft 408 kts 347°
2026-04-29 16:34 22.00922 -99.54823 33164 ft 421 kts 347°
2026-04-29 16:34 22.06781 -99.56186 33160 ft 428 kts 346°
2026-04-29 16:35 22.12770 -99.57577 33173 ft 433 kts 346°
2026-04-29 16:35 22.15809 -99.58007 33087 ft 437 kts
2026-04-29 16:35 22.18815 -99.57286 33195 ft 437 kts 18°
2026-04-29 16:36 22.24626 -99.54964 33135 ft 443 kts 18°
2026-04-29 16:36 22.30496 -99.52619 33150 ft 446 kts 18°
2026-04-29 16:37 22.36387 -99.50262 33156 ft 447 kts 18°
2026-04-29 16:37 22.41372 -99.48262 33146 ft 448 kts 18°
2026-04-29 16:38 22.48283 -99.45493 33082 ft 450 kts 18°
2026-04-29 16:38 22.54231 -99.43101 33069 ft 449 kts 18°
2026-04-29 16:39 22.60196 -99.40703 33073 ft 450 kts 18°
2026-04-29 16:39 22.66129 -99.38318 33075 ft 450 kts 18°
2026-04-29 16:40 22.72092 -99.35918 33068 ft 451 kts 18°
2026-04-29 16:40 22.78081 -99.33502 33059 ft 451 kts 18°
2026-04-29 16:41 22.84072 -99.31083 33061 ft 451 kts 18°
2026-04-29 16:41 22.90055 -99.28669 33068 ft 452 kts 18°
2026-04-29 16:42 22.96016 -99.26255 33091 ft 452 kts 18°
2026-04-29 16:42 23.02032 -99.23824 33094 ft 452 kts 18°
2026-04-29 16:43 23.08006 -99.21402 33090 ft 452 kts 18°
2026-04-29 16:43 23.13979 -99.18983 33085 ft 453 kts 18°
2026-04-29 16:44 23.19929 -99.16568 33087 ft 453 kts 18°
2026-04-29 16:44 23.25948 -99.14123 33097 ft 453 kts 18°
2026-04-29 16:45 23.31957 -99.11681 33043 ft 454 kts 18°
2026-04-29 16:45 23.37974 -99.09228 33012 ft 454 kts 18°
2026-04-29 16:46 23.43939 -99.06795 32997 ft 453 kts 18°
2026-04-29 16:46 23.49962 -99.04335 32953 ft 454 kts 17°
2026-04-29 16:47 23.55958 -99.01884 32926 ft 454 kts 17°
2026-04-29 16:47 23.61932 -98.99443 32907 ft 453 kts 18°
2026-04-29 16:48 23.67950 -98.96980 32897 ft 453 kts 18°
2026-04-29 16:48 23.74035 -98.94807 32892 ft 451 kts 12°
2026-04-29 16:49 23.80158 -98.92926 32882 ft 452 kts 13°
2026-04-29 16:49 23.86272 -98.91032 32868 ft 452 kts 12°
2026-04-29 16:50 23.92447 -98.89114 32863 ft 452 kts 12°
2026-04-29 16:50 23.98574 -98.87208 32853 ft 452 kts 12°
2026-04-29 16:51 24.04669 -98.85312 32853 ft 452 kts 12°
2026-04-29 16:51 24.10840 -98.83392 32859 ft 452 kts 13°
2026-04-29 16:52 24.17002 -98.81471 32871 ft 452 kts 12°
2026-04-29 16:52 24.23147 -98.79555 32882 ft 452 kts 12°
2026-04-29 16:53 24.29253 -98.77647 32889 ft 452 kts 12°
2026-04-29 16:53 24.35412 -98.75722 32906 ft 452 kts 12°
2026-04-29 16:54 24.41571 -98.73797 32923 ft 452 kts 12°
2026-04-29 16:54 24.47703 -98.71875 32928 ft 452 kts 12°
2026-04-29 16:55 24.53867 -98.69946 32927 ft 453 kts 12°
2026-04-29 16:55 24.60014 -98.68017 32925 ft 453 kts 12°
2026-04-29 16:56 24.66150 -98.66090 32920 ft 452 kts 12°
2026-04-29 16:56 24.72303 -98.64156 32916 ft 452 kts 12°
2026-04-29 16:57 24.78356 -98.62249 32908 ft 453 kts 12°
2026-04-29 16:57 24.84367 -98.60357 32897 ft 453 kts 11°
2026-04-29 16:58 24.89371 -98.58778 32885 ft 453 kts 11°